User: anonymous   Login
Location: C�mpuri de-Sus
(45.9500°N, 22.5500°E)
Time: 16:22:54
(UTC+00:00)
Language:

CZ-2C R/B - Orbit

View from above orbital plane
View from above orbital plane
View from above satellite
View from above satellite

Ground track
Ground track

The orbit data is extracted from the following two-line orbital elements,

1 31114U 07010B   22023.76421301  .00000033  00000-0  34035-4 0  9996
2 31114  98.2288 206.9819 0059692   1.1852 358.9457 14.19388187766035
Epoch (UTC): 23 January 2022 18:20:28
Eccentricity: 0.0059692
inclination: 98.2288°
perigee height: 784 km
apogee height: 870 km
right ascension of ascending node: 206.9819°
argument of perigee: 1.1852°
revolutions per day: 14.19388187
mean anomaly at epoch: 358.9457°
orbit number at epoch: 76603

The dashed part of the orbit path shows where the satellite is in the earth's shadow,  

DLR